Location: Bothwell
(41.7170°N, 112.2589°W)
Time: 17:46:53
(UTC+00:00)

Vanguard 2 - Pass Details

Date: 15 May 2026
Orbit: 553 x 2894 km, 32.9° (Epoch: 9 June)

Event Time Altitude Azimuth Distance (km) Brightness Sun altitude
Rises 06:00:04 0° 184° (S) 5,925 - -26.3°
Reaches altitude 10° 06:06:07 10° 166° (SSE) 5,286 - -26.7°
Maximum altitude 06:14:37 17° 133° (SE) 5,063 - -27.2°
Exits shadow 06:19:18 15° 116° (ESE) 5,297 11.4 -27.5°
Drops below altitude 10° 06:23:38 10° 102° (ESE) 5,706 11.7 -27.7°
Sets 06:30:31 0° 85° (E) 6,617 12.2 -28.1°
